N5ZP Weather Reports


time (UTC)temp
C
wind
direction
speed
KPH
gust
KPH
rain 1hr
cm
rain 24hr
cm
rain mn
cm
humidity
%
barometer
mb
20260906224129 37 52 9.7 16.1 0.00 0.00 0.00 36 1008.2
20260906223625 37 150 9.7 12.9 0.00 0.00 0.00 37 1008.4
20260906223124 37 235 3.2 9.7 0.00 0.00 0.00 37 1008.2
20260906222623 37 353 4.8 11.3 0.00 0.00 0.00 38 1008.4
20260906222122 37 158 6.4 11.3 0.00 0.00 0.00 37 1008.3
20260906221620 36 160 6.4 14.5 0.00 0.00 0.00 38 1008.3
20260906221115 37 284 1.6 9.7 0.00 0.00 0.00 37 1008.4
20260906220610 37 195 8.0 14.5 0.00 0.00 0.00 37 1008.4
20260906220106 36 172 6.4 11.3 0.00 0.00 0.00 38 1008.5
20260906215604 36 150 8.0 14.5 0.00 0.00 0.00 39 1008.6
20260906215103 37 120 8.0 9.7 0.00 0.00 0.00 38 1008.8
20260906214602 37 152 3.2 4.8 0.00 0.00 0.00 38 1008.6
20260906214057 38 132 9.7 12.9 0.00 0.00 0.00 37 1008.8
20260906213556 37 197 6.4 11.3 0.00 0.00 0.00 37 1008.7
20260906213051 37 207 1.6 12.9 0.00 0.00 0.00 38 1008.9
20260906212543 37 151 11.3 14.5 0.00 0.00 0.00 37 1008.7
20260906212039 37 192 0.0 0.0 0.00 0.00 0.00 38 1008.9
20260906211538 37 130 4.8 17.7 0.00 0.00 0.00 38 1009.0
20260906211034 37 172 3.2 12.9 0.00 0.00 0.00 39 1009.0
20260906210529 37 209 3.2 11.3 0.00 0.00 0.00 37 1009.2
20260906210029 38 176 9.7 12.9 0.00 0.00 0.00 36 1009.3
20260906205525 38 208 3.2 9.7 0.00 0.00 0.00 37 1009.4
20260906205021 38 161 0.0 9.7 0.00 0.00 0.00 38 1009.5
20260906204521 38 68 6.4 9.7 0.00 0.00 0.00 37 1009.5
20260906204021 37 200 1.6 12.9 0.00 0.00 0.00 38 1009.4
20260906203515 37 185 6.4 12.9 0.00 0.00 0.00 38 1009.4
20260906203016 36 169 9.7 12.9 0.00 0.00 0.00 41 1009.5
20260906202512 36 22 3.2 11.3 0.00 0.00 0.00 39 1009.5
20260906202008 35 236 4.8 9.7 0.00 0.00 0.00 40 1009.5
20260906201507 36 62 9.7 17.7 0.00 0.00 0.00 39 1009.6
20260906201007 37 196 6.4 20.9 0.00 0.00 0.00 38 1009.8
20260906200504 37 173 8.0 17.7 0.00 0.00 0.00 39 1009.7
20260906200004 37 196 9.7 16.1 0.00 0.00 0.00 39 1009.7
20260906195459 37 205 3.2 14.5 0.00 0.00 0.00 40 1009.8
20260906194955 37 88 3.2 4.8 0.00 0.00 0.00 40 1009.9
20260906194451 37 51 6.4 9.7 0.00 0.00 0.00 38 1009.9
20260906193947 37 58 3.2 9.7 0.00 0.00 0.00 39 1009.9
20260906193447 37 164 3.2 9.7 0.00 0.00 0.00 39 1010.0
20260906192942 37 34 4.8 14.5 0.00 0.00 0.00 39 1010.2
20260906192437 37 156 11.3 16.1 0.00 0.00 0.00 40 1010.0
20260906191936 36 206 0.0 1.6 0.00 0.00 0.00 41 1010.1
20260906191431 36 47 9.7 14.5 0.00 0.00 0.00 41 1010.2
20260906190930 36 108 4.8 14.5 0.00 0.00 0.00 39 1010.2
20260906190429 37 44 12.9 20.9 0.00 0.00 0.00 39 1010.4
20260906185924 37 135 6.4 20.9 0.00 0.00 0.00 40 1010.4
20260906185424 37 22 0.0 0.0 0.00 0.00 0.00 40 1010.3
20260906184923 37 26 6.4 14.5 0.00 0.00 0.00 39 1010.4
20260906184418 37 165 14.5 20.9 0.00 0.00 0.00 39 1010.5
20260906183914 36 141 0.0 9.7 0.00 0.00 0.00 41 1010.5
20260906183410 36 180 0.0 14.5 0.00 0.00 0.00 41 1010.5
20260906182905 36 133 9.7 14.5 0.00 0.00 0.00 41 1010.8
20260906182400 37 161 1.6 11.3 0.00 0.00 0.00 41 1010.6
20260906181855 36 184 4.8 14.5 0.00 0.00 0.00 41 1010.6
20260906181352 36 167 4.8 11.3 0.00 0.00 0.00 41 1010.9
20260906180847 36 199 3.2 12.9 0.00 0.00 0.00 42 1011.1
20260906180342 36 182 4.8 12.9 0.00 0.00 0.00 43 1011.2
20260906175839 36 60 8.0 12.9 0.00 0.00 0.00 42 1011.2
20260906175334 36 216 6.4 17.7 0.00 0.00 0.00 43 1011.4
20260906174834 36 90 6.4 11.3 0.00 0.00 0.00 43 1011.3
20260906174333 36 170 3.2 6.4 0.00 0.00 0.00 42 1011.5
20260906173828 36 199 4.8 12.9 0.00 0.00 0.00 43 1011.6
20260906173324 36 24 12.9 17.7 0.00 0.00 0.00 42 1011.7
20260906172823 36 153 3.2 14.5 0.00 0.00 0.00 44 1011.6
20260906172319 36 158 4.8 16.1 0.00 0.00 0.00 45 1011.8
20260906171820 36 19 3.2 17.7 0.00 0.00 0.00 43 1011.9
20260906171314 36 21 3.2 6.4 0.00 0.00 0.00 44 1012.0
20260906170810 36 103 6.4 9.7 0.00 0.00 0.00 46 1011.9
20260906170301 35 183 3.2 6.4 0.00 0.00 0.00 46 1012.0
20260906165756 35 186 4.8 11.3 0.00 0.00 0.00 46 1012.1
20260906165256 35 142 12.9 16.1 0.00 0.00 0.00 46 1011.8
20260906164755 35 293 0.0 11.3 0.00 0.00 0.00 46 1012.0
20260906164250 35 122 3.2 11.3 0.00 0.00 0.00 47 1012.0
20260906163746 35 166 8.0 12.9 0.00 0.00 0.00 47 1012.3
20260906163242 35 161 4.8 12.9 0.00 0.00 0.00 49 1012.1
20260906162739 35 96 6.4 12.9 0.00 0.00 0.00 48 1012.1
20260906162233 35 167 9.7 14.5 0.00 0.00 0.00 47 1012.1
20260906161733 35 161 6.4 12.9 0.00 0.00 0.00 47 1012.1
20260906161232 35 162 3.2 6.4 0.00 0.00 0.00 48 1012.1
20260906160732 34 195 1.6 9.7 0.00 0.00 0.00 48 1012.0
20260906160231 34 75 6.4 9.7 0.00 0.00 0.00 48 1012.0
20260906155729 35 171 6.4 11.3 0.00 0.00 0.00 49 1012.1
20260906155224 34 214 3.2 6.4 0.00 0.00 0.00 51 1012.2
20260906154719 34 170 4.8 12.9 0.00 0.00 0.00 52 1012.2
20260906154215 33 177 0.0 3.2 0.00 0.00 0.00 53 1012.3
20260906153712 34 152 6.4 11.3 0.00 0.00 0.00 53 1012.3
20260906153207 33 200 4.8 6.4 0.00 0.00 0.00 54 1011.9
20260906152703 33 161 0.0 4.8 0.00 0.00 0.00 54 1012.1
20260906152156 35 202 0.0 4.8 0.00 0.00 0.00 52 1012.0
20260906151651 33 218 0.0 1.6 0.00 0.00 0.00 55 1011.9
20260906151147 33 212 0.0 3.2 0.00 0.00 0.00 55 1011.8
20260906150642 32 211 1.6 3.2 0.00 0.00 0.00 57 1011.7
20260906150137 33 233 0.0 4.8 0.00 0.00 0.00 57 1011.6
20260906145636 33 182 3.2 6.4 0.00 0.00 0.00 56 1011.8
20260906145131 32 196 1.6 3.2 0.00 0.00 0.00 58 1011.6
20260906144631 32 214 0.0 1.6 0.00 0.00 0.00 60 1011.8
20260906144126 32 190 1.6 4.8 0.00 0.00 0.00 59 1011.6
20260906143626 32 214 0.0 4.8 0.00 0.00 0.00 59 1011.8
20260906143123 32 200 3.2 6.4 0.00 0.00 0.00 59 1011.7
20260906142622 31 207 3.2 3.2 0.00 0.00 0.00 62 1011.7
20260906142118 30 207 0.0 3.2 0.00 0.00 0.00 64 1011.7
20260906141616 30 179 3.2 4.8 0.00 0.00 0.00 65 1011.7
20260906141112 30 202 0.0 0.0 0.00 0.00 0.00 66 1011.8
20260906140611 30 181 3.2 4.8 0.00 0.00 0.00 67 1011.7
20260906140106 29 259 3.2 3.2 0.00 0.00 0.00 68 1011.7
20260906135603 29 117 1.6 3.2 0.00 0.00 0.00 68 1011.7
20260906135059 29 115 3.2 4.8 0.00 0.00 0.00 69 1011.5
20260906134554 28 205 1.6 4.8 0.00 0.00 0.00 70 1011.7
20260906134049 28 203 0.0 0.0 0.00 0.00 0.00 72 1011.9
20260906133550 28 179 0.0 0.0 0.00 0.00 0.00 71 1011.7
20260906133045 28 203 0.0 0.0 0.00 0.00 0.00 72 1011.9
20260906132540 28 179 3.2 4.8 0.00 0.00 0.00 72 1011.6
20260906132036 28 211 0.0 3.2 0.00 0.00 0.00 73 1011.9
20260906131531 28 202 1.6 3.2 0.00 0.00 0.00 73 1011.8
20260906131026 27 210 1.6 3.2 0.00 0.00 0.00 75 1011.6
20260906130526 27 207 0.0 0.0 0.00 0.00 0.00 75 1011.7
20260906130021 26 230 0.0 0.0 0.00 0.00 0.00 78 1011.6
20260906125519 25 230 0.0 0.0 0.00 0.00 0.00 82 1011.5
20260906125013 24 231 0.0 0.0 0.00 0.00 0.00 87 1011.4
20260906124508 23 231 0.0 0.0 0.00 0.00 0.00 89 1011.4
20260906124004 23 232 0.0 0.0 0.00 0.00 0.00 89 1011.4
20260906123503 22 232 0.0 0.0 0.00 0.00 0.00 89 1011.6
20260906123003 22 232 0.0 0.0 0.00 0.00 0.00 89 1011.3
20260906122457 22 232 0.0 0.0 0.00 0.00 0.00 89 1011.3
20260906121954 22 232 0.0 0.0 0.00 0.00 0.00 89 1011.2
20260906121450 22 232 0.0 0.0 0.00 0.00 0.00 89 1011.3
20260906120946 22 232 0.0 0.0 0.00 0.00 0.00 89 1011.2
20260906120441 22 232 0.0 0.0 0.00 0.00 0.00 89 1011.3
20260906115937 22 232 0.0 0.0 0.00 0.00 0.00 89 1010.9
20260906115432 22 232 0.0 0.0 0.00 0.00 0.00 89 1010.9
20260906114933 22 231 0.0 0.0 0.00 0.00 0.00 88 1010.9
20260906114432 22 231 0.0 0.0 0.00 0.00 0.00 89 1010.6
20260906113929 22 231 0.0 0.0 0.00 0.00 0.00 89 1010.6
20260906113427 22 231 0.0 0.0 0.00 0.00 0.00 89 1010.8
20260906112923 22 231 0.0 0.0 0.00 0.00 0.00 89 1010.8
20260906112418 23 229 0.0 0.0 0.00 0.00 0.00 88 1010.4
20260906111914 23 229 0.0 0.0 0.00 0.00 0.00 88 1010.6
20260906111413 23 229 0.0 0.0 0.00 0.00 0.00 88 1010.4
20260906110908 23 228 0.0 0.0 0.00 0.00 0.00 87 1010.5
20260906110403 23 228 0.0 0.0 0.00 0.00 0.00 88 1010.4
20260906105903 22 229 0.0 0.0 0.00 0.00 0.00 87 1010.4
20260906105358 23 228 0.0 0.0 0.00 0.00 0.00 86 1010.2
20260906104854 23 228 0.0 0.0 0.00 0.00 0.00 87 1010.3
20260906104353 23 228 0.0 0.0 0.00 0.00 0.00 87 1010.6
20260906103851 23 228 0.0 0.0 0.00 0.00 0.00 87 1010.6
20260906103350 23 228 0.0 0.0 0.00 0.00 0.00 87 1010.3
20260906102846 23 228 0.0 0.0 0.00 0.00 0.00 87 1010.3
20260906102345 23 228 0.0 0.0 0.00 0.00 0.00 87 1010.5
20260906101840 23 228 0.0 0.0 0.00 0.00 0.00 86 1010.4
20260906101335 23 228 0.0 0.0 0.00 0.00 0.00 85 1010.2
20260906100831 23 228 0.0 0.0 0.00 0.00 0.00 85 1010.2
20260906100330 23 228 0.0 0.0 0.00 0.00 0.00 85 1010.2
20260906095825 24 228 0.0 0.0 0.00 0.00 0.00 84 1010.4
20260906095321 24 228 0.0 0.0 0.00 0.00 0.00 84 1010.1
20260906094820 24 228 0.0 0.0 0.00 0.00 0.00 82 1010.1
20260906094315 25 228 0.0 0.0 0.00 0.00 0.00 80 1010.2
20260906093811 25 227 0.0 0.0 0.00 0.00 0.00 79 1010.1
20260906093307 25 210 0.0 0.0 0.00 0.00 0.00 79 1010.1
20260906092802 26 210 0.0 0.0 0.00 0.00 0.00 78 1009.9
20260906092305 26 211 0.0 0.0 0.00 0.00 0.00 78 1009.7
20260906091758 26 210 0.0 1.6 0.00 0.00 0.00 78 1009.7
20260906091254 25 194 3.2 4.8 0.00 0.00 0.00 80 1009.7
20260906090750 25 194 3.2 3.2 0.00 0.00 0.00 80 1009.6
20260906090249 25 214 0.0 0.0 0.00 0.00 0.00 79 1009.5
20260906085748 26 215 0.0 0.0 0.00 0.00 0.00 78 1009.7
20260906085247 26 215 0.0 0.0 0.00 0.00 0.00 77 1009.3
20260906084743 26 215 0.0 0.0 0.00 0.00 0.00 77 1009.6
20260906084242 26 214 0.0 0.0 0.00 0.00 0.00 77 1009.6
20260906083737 26 217 0.0 0.0 0.00 0.00 0.00 76 1010.0
20260906083232 26 204 1.6 1.6 0.00 0.00 0.00 76 1009.9
20260906082727 26 206 0.0 0.0 0.00 0.00 0.00 76 1009.5
20260906082223 26 197 0.0 0.0 0.00 0.00 0.00 75 1009.4
20260906081719 26 207 0.0 4.8 0.00 0.00 0.00 75 1009.4
20260906081213 26 207 3.2 4.8 0.00 0.00 0.00 75 1009.5
20260906080710 26 201 3.2 6.4 0.00 0.00 0.00 75 1009.6
20260906080206 26 208 1.6 3.2 0.00 0.00 0.00 75 1009.6
20260906075706 26 203 1.6 3.2 0.00 0.00 0.00 75 1009.9
20260906075200 26 206 0.0 0.0 0.00 0.00 0.00 75 1009.9
20260906074656 26 199 1.6 4.8 0.00 0.00 0.00 75 1010.0
20260906074155 26 207 1.6 1.6 0.00 0.00 0.00 75 1010.0
20260906073650 26 209 0.0 0.0 0.00 0.00 0.00 75 1010.1
20260906073145 26 212 1.6 3.2 0.00 0.00 0.00 75 1010.1
20260906072641 26 205 0.0 0.0 0.00 0.00 0.00 74 1010.2
20260906072136 26 206 1.6 3.2 0.00 0.00 0.00 74 1009.9
20260906071632 27 211 0.0 0.0 0.00 0.00 0.00 74 1009.9
20260906071132 27 210 1.6 1.6 0.00 0.00 0.00 74 1009.9
20260906070629 27 213 0.0 0.0 0.00 0.00 0.00 74 1009.8
20260906070124 27 202 0.0 1.6 0.00 0.00 0.00 73 1009.8
20260906065624 27 209 0.0 1.6 0.00 0.00 0.00 73 1009.8
20260906065119 27 210 1.6 1.6 0.00 0.00 0.00 73 1009.8
20260906064615 27 206 0.0 0.0 0.00 0.00 0.00 72 1010.2
20260906064110 27 211 0.0 0.0 0.00 0.00 0.00 72 1010.3
20260906063605 27 209 1.6 3.2 0.00 0.00 0.00 72 1010.1
20260906063101 27 212 1.6 3.2 0.00 0.00 0.00 71 1010.1
20260906062556 27 208 0.0 3.2 0.00 0.00 0.00 71 1010.3
20260906062055 27 212 0.0 0.0 0.00 0.00 0.00 71 1010.1
20260906061552 27 195 3.2 3.2 0.00 0.00 0.00 71 1010.1
20260906061051 27 209 1.6 1.6 0.00 0.00 0.00 71 1010.3
20260906060548 27 212 0.0 0.0 0.00 0.00 0.00 71 1010.3
20260906060044 28 213 0.0 0.0 0.00 0.00 0.00 70 1010.3
20260906055540 28 189 1.6 3.2 0.00 0.00 0.00 70 1010.3
20260906055035 28 205 3.2 4.8 0.00 0.00 0.00 70 1010.6
20260906054535 28 210 0.0 1.6 0.00 0.00 0.00 70 1010.5
20260906054031 28 205 1.6 3.2 0.00 0.00 0.00 70 1010.2
20260906053527 28 207 1.6 3.2 0.00 0.00 0.00 70 1010.4
20260906053022 27 215 0.0 1.6 0.00 0.00 0.00 71 1010.4
20260906052518 27 214 0.0 1.6 0.00 0.00 0.00 72 1010.4
20260906052015 27 210 0.0 0.0 0.00 0.00 0.00 74 1010.4
20260906051510 27 211 0.0 0.0 0.00 0.00 0.00 73 1010.3
20260906051006 27 211 0.0 0.0 0.00 0.00 0.00 72 1010.2
20260906050500 27 211 0.0 0.0 0.00 0.00 0.00 71 1010.3
20260906050000 28 210 0.0 0.0 0.00 0.00 0.00 70 1010.3
20260906045458 28 210 0.0 0.0 0.00 0.00 0.00 69 1010.4
20260906044955 28 210 0.0 0.0 0.00 0.00 0.00 68 1010.5
20260906044449 28 210 0.0 0.0 0.00 0.00 0.00 68 1010.2
20260906043945 28 210 0.0 0.0 0.00 0.00 0.00 67 1010.0
20260906043441 29 211 0.0 0.0 0.00 0.00 0.00 66 1010.3
20260906042936 29 210 0.0 0.0 0.00 0.00 0.00 65 1010.1
20260906042436 30 215 0.0 3.2 0.00 0.00 0.00 65 1010.3
20260906041930 30 213 0.0 3.2 0.00 0.00 0.00 64 1009.9
20260906041426 30 189 3.2 4.8 0.00 0.00 0.00 64 1010.1
20260906040920 30 199 3.2 4.8 0.00 0.00 0.00 63 1010.1
20260906040415 30 204 3.2 6.4 0.00 0.00 0.00 63 1010.1
20260906035911 30 160 3.2 4.8 0.00 0.00 0.00 63 1010.1
20260906035406 30 183 1.6 9.7 0.00 0.00 0.00 62 1010.2
20260906034901 30 165 3.2 4.8 0.00 0.00 0.00 62 1010.1
20260906034355 30 210 1.6 4.8 0.00 0.00 0.00 61 1010.1
20260906033852 30 189 0.0 11.3 0.00 0.00 0.00 60 1010.2
20260906033351 30 202 3.2 9.7 0.00 0.00 0.00 60 1010.2
20260906032847 31 194 3.2 9.7 0.00 0.00 0.00 59 1010.1
20260906032343 31 192 6.4 6.4 0.00 0.00 0.00 59 1010.2
20260906031838 31 174 4.8 4.8 0.00 0.00 0.00 58 1010.0
20260906031333 31 169 4.8 9.7 0.00 0.00 0.00 58 1009.9
20260906030833 31 188 4.8 9.7 0.00 0.00 0.00 57 1010.0
20260906030329 31 196 3.2 6.4 0.00 0.00 0.00 57 1009.9
20260906025829 31 180 6.4 9.7 0.00 0.00 0.00 56 1010.0
20260906025323 31 170 0.0 11.3 0.00 0.00 0.00 55 1009.9
20260906024822 31 228 8.0 12.9 0.00 0.00 0.00 55 1010.0
20260906024321 32 231 6.4 12.9 0.00 0.00 0.00 54 1009.7
20260906023817 32 205 3.2 12.9 0.00 0.00 0.00 54 1009.7
20260906023312 32 144 9.7 14.5 0.00 0.00 0.00 54 1009.6
20260906022808 32 151 6.4 11.3 0.00 0.00 0.00 53 1009.5
20260906022306 32 168 6.4 9.7 0.00 0.00 0.00 51 1009.6
20260906021759 32 138 14.5 20.9 0.00 0.00 0.00 50 1009.1
20260906021257 31 272 3.2 3.2 0.00 0.00 0.00 51 1009.2
20260906020752 30 209 0.0 0.0 0.00 0.00 0.00 52 1009.1
20260906020252 30 243 0.0 0.0 0.00 0.00 0.00 54 1008.9
20260906015752 30 226 0.0 0.0 0.00 0.00 0.00 53 1008.8
20260906015251 30 237 0.0 0.0 0.00 0.00 0.00 53 1008.7
20260906014746 30 227 0.0 0.0 0.00 0.00 0.00 52 1008.8
20260906014241 31 225 0.0 0.0 0.00 0.00 0.00 52 1008.6
20260906013737 31 225 0.0 0.0 0.00 0.00 0.00 50 1008.8
20260906013237 31 234 0.0 0.0 0.00 0.00 0.00 49 1008.6
20260906012732 32 232 0.0 0.0 0.00 0.00 0.00 49 1008.6
20260906012227 32 229 0.0 1.6 0.00 0.00 0.00 48 1008.5
20260906011723 32 232 0.0 0.0 0.00 0.00 0.00 47 1008.6
20260906011217 32 232 0.0 0.0 0.00 0.00 0.00 47 1008.5
20260906010713 33 233 0.0 0.0 0.00 0.00 0.00 46 1008.3
20260906010209 33 221 0.0 0.0 0.00 0.00 0.00 45 1008.2
20260906005709 33 218 0.0 1.6 0.00 0.00 0.00 44 1008.2
20260906005208 34 197 3.2 6.4 0.00 0.00 0.00 43 1008.5
20260906004707 34 212 1.6 4.8 0.00 0.00 0.00 43 1008.3
20260906004202 35 203 1.6 3.2 0.00 0.00 0.00 42 1008.3
20260906003658 35 202 1.6 4.8 0.00 0.00 0.00 42 1008.4
20260906003154 35 181 3.2 6.4 0.00 0.00 0.00 41 1008.2
20260906002654 35 207 1.6 3.2 0.00 0.00 0.00 41 1008.3
20260906002148 35 42 4.8 9.7 0.00 0.00 0.00 40 1008.3
20260906001643 36 186 0.0 0.0 0.00 0.00 0.00 39 1008.2
20260906001143 36 218 0.0 3.2 0.00 0.00 0.00 39 1008.1
20260906000639 36 209 1.6 4.8 0.00 0.00 0.00 39 1008.1
20260906000134 36 159 6.4 6.4 0.00 0.00 0.00 39 1008.1
20260905235633 36 207 1.6 6.4 0.00 0.00 0.00 38 1007.8
20260905235129 36 252 3.2 6.4 0.00 0.00 0.00 37 1008.0
20260905234624 37 134 6.4 11.3 0.00 0.00 0.00 37 1008.0
20260905234120 37 210 3.2 4.8 0.00 0.00 0.00 37 1008.0
20260905233620 37 210 0.0 4.8 0.00 0.00 0.00 37 1008.0
20260905233114 36 168 4.8 4.8 0.00 0.00 0.00 37 1008.0
20260905232609 36 199 1.6 4.8 0.00 0.00 0.00 37 1008.0
20260905232105 37 182 6.4 11.3 0.00 0.00 0.00 37 1007.9
20260905231600 36 212 1.6 3.2 0.00 0.00 0.00 38 1008.0
20260905231056 36 168 6.4 11.3 0.00 0.00 0.00 38 1007.9
20260905230556 37 55 4.8 11.3 0.00 0.00 0.00 37 1008.0
20260905230055 37 289 0.0 4.8 0.00 0.00 0.00 37 1008.0
20260905225554 37 191 3.2 6.4 0.00 0.00 0.00 37 1007.8
20260905225050 37 222 3.2 9.7 0.00 0.00 0.00 37 1007.8
20260905224550 38 206 4.8 12.9 0.00 0.00 0.00 36 1007.9